When you browse on this site, cookies collect data to enhance your experience and personalize the content and advertising you see.
Visit our Privacy Policy to learn more. By continuing to use the site, you agree to this use of cookies and data.
  • In Deutschland
  • Länderverzeichnis
  • Für 7 Tage
  • Wassertemperatur
  • Satellitenkarten
  • Wetterkarte
  • Widgets
  • user-avatar
    Anmelden

    Stündliche Wetter Tonton

    Heute, 15 Dezember, Samstag

    Zeit Temperatur Niederschläge Wind Luftdruck Luftfeuchtigkeit
    00:00 +2°C° 0 mm 9 m/S 761 mmHg 74%
    01:00 +2°C° 0.2 mm 9 m/S 760 mmHg 77%
    02:00 +2°C° 0.2 mm 10 m/S 759 mmHg 79%
    03:00 +2°C° 0.2 mm 10 m/S 759 mmHg 82%
    04:00 +2°C° 1.4 mm 10 m/S 758 mmHg 85%
    05:00 +2°C° 1.4 mm 10 m/S 757 mmHg 87%
    06:00 +2°C° 0 mm 11 m/S 757 mmHg 88%
    07:00 +2°C° 1.2 mm 11 m/S 756 mmHg 89%
    08:00 +3°C° 1.2 mm 11 m/S 755 mmHg 90%
    09:00 +3°C° 1.2 mm 11 m/S 754 mmHg 92%
    10:00 +4°C° 1.7 mm 11 m/S 753 mmHg 92%
    11:00 +6°C° 1.7 mm 11 m/S 752 mmHg 92%
    12:00 +6°C° 1.7 mm 11 m/S 751 mmHg 93%
    13:00 +8°C° 3.8 mm 11 m/S 750 mmHg 93%
    14:00 +9°C° 3.8 mm 10 m/S 748 mmHg 94%
    15:00 +11°C° 3.8 mm 10 m/S 747 mmHg 94%
    16:00 +9°C° 0.8 mm 10 m/S 747 mmHg 91%
    17:00 +9°C° 0.8 mm 10 m/S 746 mmHg 88%
    18:00 +9°C° 0.8 mm 10 m/S 746 mmHg 86%
    19:00 +8°C° 0 mm 10 m/S 747 mmHg 84%
    20:00 +7°C° 0 mm 10 m/S 747 mmHg 81%
    21:00 +6°C° 0 mm 10 m/S 748 mmHg 79%
    22:00 +6°C° 0 mm 9 m/S 749 mmHg 80%
    23:00 +5°C° 0 mm 8 m/S 750 mmHg 81%

    Morgen, 16 Dezember, Sonntag

    Zeit Temperatur Niederschläge Wind Luftdruck Luftfeuchtigkeit
    00:00 +5°C° 0 mm 7 m/S 751 mmHg 82%
    01:00 +5°C° 0.1 mm 6 m/S 751 mmHg 84%
    02:00 +5°C° 0.1 mm 6 m/S 751 mmHg 86%
    03:00 +5°C° 0.1 mm 6 m/S 752 mmHg 88%
    04:00 +6°C° 0.2 mm 5 m/S 752 mmHg 88%
    05:00 +5°C° 0.2 mm 5 m/S 752 mmHg 88%
    06:00 +5°C° 0.2 mm 5 m/S 752 mmHg 88%
    07:00 +5°C° 0.1 mm 5 m/S 752 mmHg 88%
    08:00 +5°C° 0.1 mm 5 m/S 752 mmHg 88%
    09:00 +5°C° 0.1 mm 4 m/S 753 mmHg 88%
    10:00 +6°C° 0.2 mm 5 m/S 753 mmHg 86%
    11:00 +7°C° 0.2 mm 5 m/S 753 mmHg 83%
    12:00 +8°C° 0.2 mm 5 m/S 753 mmHg 81%
    13:00 +8°C° 0.4 mm 5 m/S 753 mmHg 82%
    14:00 +7°C° 0.4 mm 5 m/S 753 mmHg 82%
    15:00 +7°C° 0.4 mm 5 m/S 753 mmHg 83%
    16:00 +7°C° 0.2 mm 5 m/S 753 mmHg 85%
    17:00 +6°C° 0.2 mm 5 m/S 754 mmHg 86%
    18:00 +5°C° 0.2 mm 4 m/S 754 mmHg 88%
    19:00 +5°C° 0 mm 4 m/S 755 mmHg 88%
    20:00 +5°C° 0 mm 4 m/S 755 mmHg 88%
    21:00 +5°C° 0 mm 4 m/S 756 mmHg 87%
    22:00 +5°C° 0 mm 4 m/S 756 mmHg 88%
    23:00 +5°C° 0 mm 5 m/S 757 mmHg 88%

    übermorgen, 17 Dezember, Montag

    Zeit Temperatur Niederschläge Wind Luftdruck Luftfeuchtigkeit
    00:00 +5°C° 0 mm 5 m/S 757 mmHg 88%
    01:00 +5°C° 0 mm 4 m/S 757 mmHg 88%
    02:00 +5°C° 0 mm 4 m/S 758 mmHg 88%
    03:00 +5°C° 0 mm 4 m/S 758 mmHg 88%
    04:00 +4°C° 0 mm 4 m/S 759 mmHg 88%
    05:00 +4°C° 0 mm 4 m/S 759 mmHg 89%
    06:00 +4°C° 0 mm 4 m/S 759 mmHg 89%
    07:00 +5°C° 0 mm 4 m/S 760 mmHg 89%
    08:00 +5°C° 0 mm 4 m/S 760 mmHg 89%
    09:00 +5°C° 0 mm 4 m/S 761 mmHg 89%
    10:00 +6°C° 0 mm 5 m/S 761 mmHg 86%
    11:00 +8°C° 0 mm 6 m/S 761 mmHg 84%
    12:00 +9°C° 0 mm 6 m/S 761 mmHg 81%
    13:00 +9°C° 0 mm 7 m/S 760 mmHg 82%
    14:00 +9°C° 0 mm 7 m/S 760 mmHg 84%
    15:00 +9°C° 0 mm 7 m/S 760 mmHg 85%
    16:00 +9°C° 0 mm 8 m/S 760 mmHg 86%
    17:00 +9°C° 0 mm 8 m/S 760 mmHg 87%
    18:00 +9°C° 0 mm 8 m/S 760 mmHg 88%
    19:00 +10°C° 0.1 mm 8 m/S 760 mmHg 88%
    20:00 +10°C° 0.1 mm 9 m/S 759 mmHg 88%
    21:00 +10°C° 0.1 mm 9 m/S 759 mmHg 88%
    22:00 +9°C° 0.1 mm 10 m/S 759 mmHg 88%
    23:00 +9°C° 0.1 mm 10 m/S 758 mmHg 87%

    18 Dezember, Dienstag

    Zeit Temperatur Niederschläge Wind Luftdruck Luftfeuchtigkeit
    00:00 +9°C° 0.1 mm 10 m/S 758 mmHg 87%
    01:00 +9°C° 0.1 mm 11 m/S 758 mmHg 85%
    02:00 +9°C° 0.1 mm 11 m/S 757 mmHg 83%
    03:00 +9°C° 0.1 mm 11 m/S 757 mmHg 82%
    04:00 +9°C° 0 mm 11 m/S 756 mmHg 80%
    05:00 +8°C° 0 mm 11 m/S 755 mmHg 79%
    06:00 +8°C° 0 mm 11 m/S 754 mmHg 78%
    07:00 +8°C° 0.1 mm 12 m/S 753 mmHg 77%
    08:00 +8°C° 0.1 mm 13 m/S 753 mmHg 77%
    09:00 +8°C° 0.1 mm 13 m/S 752 mmHg 77%
    10:00 +8°C° 0.9 mm 13 m/S 751 mmHg 79%
    11:00 +8°C° 0.9 mm 13 m/S 750 mmHg 81%
    12:00 +8°C° 0.9 mm 13 m/S 750 mmHg 83%
    13:00 +8°C° 1.6 mm 13 m/S 749 mmHg 83%
    14:00 +8°C° 1.6 mm 13 m/S 748 mmHg 83%
    15:00 +8°C° 1.6 mm 13 m/S 747 mmHg 83%
    16:00 +8°C° 2.2 mm 12 m/S 747 mmHg 86%
    17:00 +8°C° 2.2 mm 12 m/S 747 mmHg 88%
    18:00 +8°C° 2.2 mm 12 m/S 747 mmHg 90%
    19:00 +7°C° 2.1 mm 10 m/S 747 mmHg 89%
    20:00 +7°C° 2.1 mm 8 m/S 747 mmHg 87%
    21:00 +6°C° 2.1 mm 7 m/S 748 mmHg 86%
    22:00 +7°C° 0 mm 6 m/S 749 mmHg 87%
    23:00 +5°C° 0 mm 6 m/S 750 mmHg 87%

    19 Dezember, Mittwoch

    Zeit Temperatur Niederschläge Wind Luftdruck Luftfeuchtigkeit
    00:00 +6°C° 0 mm 5 m/S 750 mmHg 88%
    01:00 +6°C° 0 mm 5 m/S 751 mmHg 88%
    02:00 +6°C° 0 mm 5 m/S 752 mmHg 88%
    03:00 +5°C° 0 mm 5 m/S 752 mmHg 87%
    04:00 +5°C° 0 mm 5 m/S 753 mmHg 87%
    05:00 +5°C° 0 mm 4 m/S 753 mmHg 87%
    06:00 +5°C° 0 mm 4 m/S 754 mmHg 87%
    07:00 +5°C° 0 mm 4 m/S 754 mmHg 87%
    08:00 +5°C° 0 mm 4 m/S 755 mmHg 86%
    09:00 +5°C° 0 mm 4 m/S 755 mmHg 86%
    10:00 +6°C° 0 mm 4 m/S 755 mmHg 83%
    11:00 +7°C° 0 mm 5 m/S 755 mmHg 79%
    12:00 +8°C° 0 mm 5 m/S 756 mmHg 76%
    13:00 +8°C° 0.1 mm 5 m/S 756 mmHg 77%
    14:00 +8°C° 0.1 mm 5 m/S 756 mmHg 78%
    15:00 +7°C° 0.1 mm 5 m/S 756 mmHg 79%
    16:00 +7°C° 0.1 mm 5 m/S 756 mmHg 81%
    17:00 +6°C° 0.1 mm 5 m/S 756 mmHg 83%
    18:00 +5°C° 0.1 mm 5 m/S 757 mmHg 84%
    19:00 +5°C° 0 mm 5 m/S 757 mmHg 85%
    20:00 +5°C° 0 mm 5 m/S 757 mmHg 85%
    21:00 +5°C° 0 mm 5 m/S 758 mmHg 86%
    22:00 +5°C° 0.1 mm 5 m/S 758 mmHg 86%
    23:00 +5°C° 0.1 mm 5 m/S 758 mmHg 87%

    20 Dezember, Donnerstag

    Zeit Temperatur Niederschläge Wind Luftdruck Luftfeuchtigkeit
    00:00 +5°C° 0.1 mm 5 m/S 758 mmHg 88%
    01:00 +5°C° 0.3 mm 5 m/S 758 mmHg 88%
    02:00 +6°C° 0.3 mm 5 m/S 758 mmHg 89%
    03:00 +6°C° 0.3 mm 5 m/S 759 mmHg 90%
    04:00 +6°C° 0.3 mm 5 m/S 759 mmHg 90%
    05:00 +6°C° 0.3 mm 4 m/S 759 mmHg 89%
    06:00 +6°C° 0.3 mm 4 m/S 760 mmHg 89%
    07:00 +6°C° 0 mm 4 m/S 760 mmHg 89%
    08:00 +6°C° 0 mm 4 m/S 761 mmHg 89%
    09:00 +5°C° 0 mm 3 m/S 761 mmHg 89%
    10:00 +6°C° 0 mm 4 m/S 761 mmHg 86%
    11:00 +7°C° 0 mm 4 m/S 762 mmHg 83%
    12:00 +8°C° 0 mm 4 m/S 762 mmHg 80%
    13:00 +8°C° 0 mm 4 m/S 762 mmHg 81%
    14:00 +9°C° 0 mm 3 m/S 762 mmHg 83%
    15:00 +9°C° 0 mm 3 m/S 763 mmHg 84%
    16:00 +8°C° 0.1 mm 3 m/S 763 mmHg 85%
    17:00 +7°C° 0.1 mm 3 m/S 763 mmHg 87%
    18:00 +7°C° 0.1 mm 3 m/S 764 mmHg 88%
    19:00 +7°C° 0 mm 3 m/S 764 mmHg 88%
    20:00 +5°C° 0 mm 3 m/S 764 mmHg 89%
    21:00 +5°C° 0 mm 3 m/S 765 mmHg 89%
    22:00 +5°C° 0 mm 3 m/S 765 mmHg 90%
    23:00 +5°C° 0 mm 3 m/S 765 mmHg 90%
    Mehr zeigen